Probability
0 0 0 0 0 0 0 0 0 0 0 0 0 0 0 0 0 0 0 0 0 0 0 0 0 0 0 0 0 0 0 0 0 0 0 0 0 0 0 0 0 0 0 0
0 0 0 0 0 0 0 0 0 0 0 0 0 0 0 0 0 0 0 0 0 0 0 0 0 0 0 0 0 0 0 0 0 0 0 0 0 0 0 0 0 0 0 0
0 0 0 0 0 0 0 0 0 0 0 0 0 0 0 0 0 0 0 0 0 0 0 0 0 0 0 0 0 0 0 0 0 0 0 0 0 0 0 0 0 0 0 0
0 0 0 0 0 0 0 0 0 0 0 0 0 0 0 0 0 0 0 0 0 0 0 0 0 0 0 0 0 0 0 0 0 0 0 0 0 0 0 0 0 0 0 0
0 0 0 0 0 0 0 0 0 0 0 0 0 0 0 0 0 0 0 0 0 0 0 0 0 0 0 0 0 0 0 0 0 0 0 0 0 0 0 0 0 0 0 0
0 0 0 0 0 0 0 0 0 0 0 0 0 0 0 0 0 0 0 0 0 0 0 0 0 0 0 0 0 0 0 0 0 0 0 0 0 0 0 0 0 0 0 0
0 0 0 0 0 0 0 0 0 0 0 0 0 0 0 0 0 0 0 0 0 0 0 0 0 0 0 0 0 0 0 0 0 0 0 0 0 0 0 0 0 0 0 0
0 0 0 0 0 0 0 0 0 0 0 0 0 0 0 0 0 0 0 0 0 0 0 0 0 0 0 0 0 0 0 0 0 0 0 0 0 0 0 0 0 0 0 0
0 0 0 0 0 0 0 0 0 0 0 0 0 0 0 0 0 0 0 0 0 0 0 0 0 0 0 0 0 0 0 0 0 0 0 0 0 0 0 0 0 0 0 0
0 0 0 0 0 0 0 0 0 0 0 0 0 0 0 0 0 0 0 0 0 0 0 0 0 0 0 0 0 0 0 0 0 0 0 0 0 0 0 0 0 0 0 0
0 0 0 0 0 0 0 0 0 0 0 0 0 0 0 0 0 0 0 0 0 0 0 0 0 0 0 0 0 0 0 0 0 0 0 0 0 0 0 0 0 0 0 0
0 0 0 0 0 0 0 0 0 0 0 0 0 0 0 0 0 0 0 0 0 0 0 0 0 0 0 0 0 0 0 0 0 0 0 0 0 0 0 0 0 0 0 0
0 0 0 0 0 0 0 0 0 0 0 0 0 0 0 0 0 0 0 0 0 0 0 0 0 0 0 0 0 0 0 0 0 0 0 0 0 0 0 0 0 0 0 0
0 0 0 0 0 0 0 0 0 0 0 0 0 0 0 0 0 0 0 0 0 0 0 0 0 0 0 0 0 0 0 0 0 0 0 0 0 0 0 0 0 0 0 0
0 0 0 0 0 0 0 0 0 0 0 0 0 0 0 0 0 0 0 0 0 0 0 0 0 0 0 0 0 0 0 0 0 0 0 0 0 0 0 0 0 0 0 0
0 0 0 0 0 0 0 0 0 0 0 0 0 0 0 0 0 0 0 0 0 0 0 0 0 0 0 0 0 0 0 0 0 0 0 0 0 0 0 0 0 0 0 0
0 0 0 0 0 0 0 0 0 0 0 0 0 0 0 0 0 0 0 0 0 0 0 0 0 0 0 0 0 0 0 0 0 0 0 0 0 0 0 0 0 0 0 0
0 0 0 0 0 0 0 0 0 0 0 0 0 0 0 0 0 0 0 0 0 0 0 0 0 0 0 0 0 0 0 0 0 0 0 0 0 0 0 0 0 0 0 0
0 0 0 0 0 0 0 0 0 0 0 0 0 0 0 0 0 0 0 0 0 0 0 0 0 0 0 0 0 0 0 0 0 0 0 0 0 0 0 0 0 0 0 0
0 0 0 0 0 0 0 0 0 0 0 0 0 0 0 0 0 0 0 0 0 0 0 0 0 0 0 0 0 0 0 0 0 0 0 0 0 0 0 0 0 0 0 0
0 0 0 0 0 0 0 0 0 0 0 0 0 0 0 0 0 0 0 0 0 0 0 0 0 0 0 0 0 0 0 0 0 0 0 0 0 0 0 0 0 0 0 0
0 0 0 0 0 0 0 0 0 0 0 0 0 0 0 0 0 0 0 0 0 0 0 0 0 0 0 0 0 0 0 0 0 0 0 0 0 0 0 0 0 0 0 0
0 0 0 0 0 0 0 0 0 0 0 0 0 0 0 0 0 0 0 0 0 0 0 0 0 0 0 0 0 0 0 0 0 0 0 0 0 0 0 0 0 0 0 0
0 0 0 0 0 0 0 0 0 0 0 0 0 0 0 0 0 0 0 0 0 0 0 0 0 0 0 0 0 0 0 0 0 0 0 0 0 0 0 0 0 0 0 0
0 0 0 0 0 0 0 0 0 0 0 0 0 0 0 0 0 0 0 0 0 0 0 0 0 0 0 0 0 0 0 0 0 0 0 0 0 0 0 0 0 0 0 0
0 0 0 0 0 0 0 0 0 0 0 0 0 0 0 0 0 0 0 0 0 0 0 0 0 0 0 0 0 0 0 0 0 0 0 0 0 0 0 0 0 0 0 0
0 0 0 0 0 0 0 0 0 0 0 0 0 0 0 0 0 0 0 0 0 0 0 0 0 0 0 0 0 0 0 0 0 0 0 0 0 0 0 0 0 0 0 0
Height
5579 5576 5574 5573 5572 5570 5567 5565 5564 5564 5562 5561 5558 5556 5555 5553 5551 5550 5548 5547 5545 5544 5542 5541 5540 5539 5538 5537 5536 5536 5535 5535 5534 5534 5534 5534 5534 5535 5535 5535 5536 5537 5538 5539
5570 5568 5565 5563 5563 5560 5558 5556 5554 5552 5552 5550 5547 5546 5544 5542 5540 5539 5537 5535 5533 5532 5530 5529 5528 5527 5525 5524 5523 5522 5522 5521 5521 5520 5520 5520 5520 5521 5521 5521 5522 5522 5523 5524
5561 5558 5555 5554 5554 5551 5549 5547 5545 5543 5543 5539 5537 5535 5533 5531 5529 5527 5525 5523 5521 5520 5518 5517 5516 5514 5513 5511 5510 5509 5508 5508 5507 5507 5506 5506 5506 5506 5507 5507 5507 5508 5508 5509
5550 5549 5546 5549 5544 5542 5539 5538 5535 5533 5531 5529 5527 5524 5522 5520 5518 5516 5514 5512 5510 5508 5506 5505 5503 5502 5500 5498 5497 5496 5495 5494 5494 5493 5493 5492 5492 5492 5492 5492 5493 5493 5493 5494
5541 5538 5536 5537 5535 5531 5529 5528 5525 5523 5520 5518 5515 5513 5511 5509 5506 5504 5502 5500 5498 5496 5494 5492 5490 5489 5487 5485 5484 5482 5481 5481 5480 5479 5479 5478 5478 5478 5478 5478 5478 5478 5478 5479
5531 5528 5526 5528 5524 5521 5519 5517 5515 5512 5509 5507 5504 5503 5502 5498 5495 5492 5490 5488 5485 5483 5481 5479 5478 5476 5474 5472 5471 5469 5468 5467 5466 5465 5465 5464 5464 5463 5463 5463 5463 5463 5463 5463
5521 5517 5516 5516 5512 5510 5508 5507 5503 5500 5498 5496 5493 5491 5489 5486 5483 5480 5478 5475 5473 5471 5468 5466 5464 5463 5461 5459 5458 5456 5455 5454 5453 5452 5451 5450 5450 5449 5449 5449 5448 5448 5449 5449
5511 5508 5508 5504 5501 5499 5497 5494 5491 5489 5487 5484 5482 5479 5477 5474 5471 5468 5466 5463 5460 5458 5455 5453 5451 5449 5447 5446 5444 5443 5442 5440 5439 5438 5437 5436 5435 5435 5434 5434 5433 5433 5433 5433
5502 5501 5496 5492 5489 5487 5484 5482 5479 5477 5475 5473 5470 5468 5465 5462 5459 5456 5453 5450 5447 5444 5442 5439 5437 5435 5434 5433 5431 5430 5428 5427 5426 5425 5424 5422 5422 5421 5420 5419 5419 5418 5418 5418
5489 5488 5484 5480 5477 5474 5472 5469 5467 5465 5463 5460 5458 5455 5453 5450 5447 5444 5441 5437 5434 5431 5428 5426 5424 5422 5420 5419 5418 5416 5415 5414 5413 5411 5410 5409 5408 5407 5406 5405 5404 5403 5403 5403
5477 5475 5472 5469 5465 5462 5459 5457 5455 5452 5450 5448 5446 5443 5440 5437 5434 5431 5428 5424 5421 5418 5415 5412 5410 5408 5406 5405 5404 5403 5401 5400 5399 5398 5397 5396 5395 5393 5392 5391 5390 5389 5389 5388
5466 5463 5460 5457 5453 5450 5448 5445 5443 5440 5438 5435 5433 5430 5427 5424 5421 5418 5415 5411 5408 5405 5402 5399 5396 5394 5393 5391 5390 5389 5388 5387 5386 5385 5384 5382 5381 5380 5378 5377 5376 5375 5374 5373
5453 5450 5447 5444 5442 5439 5436 5434 5431 5428 5426 5423 5420 5417 5414 5411 5408 5405 5402 5398 5395 5392 5389 5386 5383 5381 5379 5377 5376 5375 5374 5373 5372 5371 5370 5369 5368 5367 5365 5364 5363 5361 5360 5359
5442 5439 5435 5433 5430 5428 5425 5422 5420 5417 5414 5411 5408 5405 5402 5399 5395 5392 5389 5386 5383 5379 5377 5374 5371 5369 5366 5364 5363 5361 5360 5359 5358 5358 5357 5356 5355 5354 5353 5351 5350 5349 5347 5346
5431 5427 5425 5422 5419 5417 5414 5411 5408 5405 5402 5399 5396 5393 5390 5386 5383 5380 5376 5373 5370 5367 5364 5361 5359 5356 5354 5351 5350 5348 5347 5346 5346 5345 5344 5343 5342 5341 5340 5338 5337 5336 5334 5333
5420 5417 5414 5411 5408 5405 5402 5399 5397 5394 5391 5388 5384 5381 5378 5375 5371 5368 5364 5361 5358 5355 5352 5349 5346 5344 5341 5339 5337 5336 5335 5334 5333 5332 5332 5331 5330 5329 5328 5326 5324 5323 5321 5320
5409 5406 5403 5400 5397 5394 5391 5388 5385 5382 5379 5376 5373 5370 5367 5363 5360 5356 5353 5349 5346 5343 5340 5337 5334 5332 5330 5328 5326 5325 5323 5322 5321 5320 5319 5319 5318 5317 5315 5314 5312 5310 5308 5307
5398 5395 5392 5389 5386 5383 5380 5377 5374 5371 5368 5365 5362 5358 5355 5352 5348 5345 5341 5338 5334 5331 5328 5325 5323 5320 5318 5317 5315 5313 5312 5311 5309 5308 5307 5306 5305 5304 5303 5301 5299 5298 5296 5294
5388 5385 5382 5379 5376 5372 5369 5366 5363 5360 5357 5353 5350 5347 5343 5340 5337 5333 5330 5327 5324 5320 5317 5314 5312 5309 5307 5305 5304 5302 5301 5299 5298 5297 5296 5294 5293 5292 5290 5289 5287 5285 5284 5282
5378 5375 5372 5369 5365 5362 5359 5356 5353 5349 5346 5342 5339 5336 5332 5329 5325 5322 5319 5316 5313 5310 5307 5304 5301 5299 5297 5295 5293 5291 5290 5288 5287 5285 5284 5283 5281 5280 5278 5277 5275 5273 5272 5270
5369 5366 5362 5359 5356 5352 5349 5346 5342 5339 5335 5332 5328 5325 5321 5317 5314 5311 5308 5305 5302 5299 5296 5294 5291 5289 5286 5284 5282 5280 5278 5277 5275 5274 5272 5271 5269 5268 5266 5265 5263 5262 5260 5259
5360 5357 5353 5350 5346 5343 5339 5335 5332 5329 5325 5321 5318 5314 5310 5307 5303 5300 5297 5294 5291 5288 5286 5283 5281 5278 5276 5274 5272 5269 5267 5266 5264 5262 5261 5259 5258 5257 5255 5253 5252 5250 5249 5248
5352 5348 5344 5340 5337 5333 5329 5326 5322 5319 5315 5311 5308 5304 5300 5296 5293 5290 5287 5284 5281 5278 5276 5273 5271 5268 5266 5264 5261 5259 5257 5255 5253 5251 5250 5248 5247 5246 5244 5243 5241 5240 5239 5237
5343 5339 5335 5331 5327 5324 5320 5317 5313 5309 5306 5302 5298 5294 5291 5287 5284 5280 5277 5274 5271 5269 5266 5264 5261 5259 5256 5254 5251 5249 5247 5245 5243 5241 5240 5238 5237 5235 5234 5233 5232 5230 5229 5228
5334 5330 5326 5322 5319 5315 5312 5308 5304 5300 5297 5293 5289 5286 5282 5279 5275 5272 5268 5265 5262 5259 5257 5254 5251 5249 5246 5244 5242 5240 5237 5236 5234 5232 5231 5229 5228 5226 5225 5224 5222 5221 5220 5219
5326 5322 5318 5314 5311 5307 5303 5300 5296 5292 5289 5285 5281 5277 5274 5270 5267 5263 5260 5257 5253 5250 5248 5245 5242 5239 5237 5234 5232 5230 5228 5227 5225 5224 5222 5221 5220 5218 5217 5215 5214 5213 5212 5211
5318 5314 5311 5307 5303 5299 5296 5292 5289 5285 5281 5277 5274 5270 5266 5262 5259 5255 5252 5248 5245 5242 5239 5236 5233 5230 5228 5225 5223 5221 5220 5218 5217 5216 5214 5213 5212 5210 5209 5207 5206 5205 5204 5203
Wind_Speed
28 29 29 29 28 29 31 32 33 31 31 31 33 34 35 36 36 37 38 39 40 40 40 41 42 43 44 44 45 46 46 47 48 49 50 50 51 51 52 52 53 53 54 54
30 29 30 30 29 29 30 31 32 32 31 32 34 35 35 36 37 37 38 39 40 40 40 40 41 42 43 43 44 45 46 46 47 47 48 49 50 51 52 52 53 54 54 55
32 31 32 31 29 31 31 31 31 32 31 33 35 35 36 37 37 37 38 39 39 39 40 40 41 41 42 43 44 44 45 46 46 47 48 48 49 50 51 52 53 54 54 54
32 32 33 31 30 31 32 32 32 33 33 34 34 35 36 37 37 38 39 39 40 40 41 41 42 42 42 43 44 44 44 45 46 46 47 48 49 49 50 50 51 51 52 53
33 34 35 32 32 33 34 33 33 34 34 35 35 36 36 37 37 38 39 39 40 40 41 41 42 42 42 42 42 43 44 44 45 45 46 47 48 49 49 49 50 51 51 52
34 36 36 35 35 35 36 36 34 35 35 36 36 36 36 36 37 38 39 40 40 40 41 42 42 42 42 41 41 42 42 43 44 45 45 46 47 48 48 49 49 50 51 51
35 37 37 37 37 37 37 37 37 36 36 37 37 36 37 37 38 38 39 40 41 42 41 42 42 42 42 42 41 42 42 42 43 43 44 45 46 48 48 49 49 50 51 51
37 38 37 38 38 38 38 38 38 38 38 38 38 38 38 38 38 38 39 40 41 42 43 43 43 43 42 41 41 41 42 42 42 43 43 44 45 46 47 48 48 49 50 50
38 37 38 38 39 39 39 39 39 39 39 39 39 39 39 39 39 39 40 41 41 42 43 43 43 42 41 41 41 41 41 41 42 42 42 43 43 44 45 46 47 48 48 49
39 37 38 39 39 39 40 40 39 39 40 40 40 40 40 40 40 40 40 41 41 42 42 42 42 42 42 42 41 41 41 41 41 41 41 42 42 43 44 44 45 46 47 47
40 39 39 38 39 39 40 40 39 39 40 40 40 40 40 41 40 40 41 41 41 41 41 41 41 41 42 42 42 42 42 41 41 41 41 41 42 42 43 43 43 44 45 46
39 38 39 38 39 39 39 38 39 39 39 40 40 40 40 40 41 41 41 41 40 40 40 40 40 40 41 41 42 42 42 42 41 41 41 41 41 41 42 42 43 43 44 44
37 37 38 37 37 37 37 37 37 38 38 39 39 39 39 39 40 40 41 40 40 39 39 39 39 39 40 40 41 41 41 41 41 41 41 40 40 40 40 41 42 42 42 42
36 36 36 36 36 36 37 37 37 37 37 38 38 39 38 38 38 39 39 39 39 39 38 38 38 39 39 39 40 40 41 41 40 40 40 40 39 39 39 39 39 40 41 42
35 35 35 36 36 36 37 37 37 37 37 37 37 37 37 37 38 38 38 38 38 38 38 38 38 38 38 38 38 38 38 39 39 39 39 39 38 38 38 38 39 39 39 40
34 34 34 35 36 36 36 36 36 37 36 36 36 37 37 37 37 37 37 37 37 37 37 37 37 37 37 36 35 35 36 36 37 37 38 38 38 38 38 38 38 38 39 39
34 34 34 34 34 34 35 36 36 36 36 36 36 36 37 37 37 37 37 37 37 37 37 36 36 35 35 34 34 34 34 35 35 36 36 37 37 37 38 38 38 38 37 38
33 33 33 33 33 34 34 35 35 35 36 36 37 37 37 37 37 37 37 37 36 36 35 34 34 34 33 33 33 33 34 34 34 35 35 36 36 37 37 37 37 37 37 36
32 32 32 33 33 34 34 35 35 35 36 36 36 36 37 37 37 36 36 35 34 33 33 33 32 31 32 32 32 32 33 33 34 34 35 35 36 36 37 37 37 36 36 36
31 31 31 32 32 33 33 34 34 34 35 35 36 36 37 37 36 35 35 34 33 33 32 31 31 31 31 31 32 32 32 33 34 34 34 34 34 35 35 35 35 35 35 35
31 31 30 31 31 32 33 33 33 33 33 33 34 34 35 35 35 34 34 33 33 32 31 31 31 31 31 31 31 32 32 32 33 33 33 34 34 34 34 34 34 34 34 33
31 31 31 31 32 32 32 32 32 32 32 33 33 33 33 33 32 32 32 31 30 30 30 30 29 29 29 30 30 30 31 31 32 32 32 32 32 32 32 32 32 32 32 32
30 30 31 31 31 31 31 31 31 31 31 31 32 31 31 30 30 30 30 29 29 29 29 28 28 28 29 29 30 30 30 30 30 30 30 30 30 30 30 30 30 30 30 30
29 30 30 30 30 29 29 29 29 29 29 30 30 29 29 29 29 29 29 29 29 28 28 28 28 28 29 29 28 28 28 28 28 27 27 27 27 27 27 27 27 27 27 27
29 29 29 29 29 28 28 28 28 28 28 28 28 28 28 28 28 28 28 28 28 28 27 28 28 28 28 28 27 27 26 26 26 25 25 25 25 24 24 25 25 25 25 25
28 28 28 28 27 27 27 27 27 27 27 27 27 27 27 27 27 27 27 27 27 27 27 27 27 27 27 26 26 26 25 25 24 24 23 23 23 23 23 24 24 23 23 23
27 27 27 26 26 26 26 26 26 26 26 26 26 26 26 26 26 26 26 26 26 26 25 25 25 25 25 24 24 24 23 23 23 23 23 22 22 22 22 22 22 22 22 22
Wind_Direction
289 287 284 280 280 279 278 279 279 280 279 277 276 277 277 277 277 277 277 276 275 274 274 272 271 270 269 269 268 267 267 267 266 265 264 263 262 262 262 262 261 260 260 260
289 287 285 282 280 280 280 280 281 280 279 278 279 277 278 278 278 279 279 278 277 276 275 274 273 271 270 270 269 268 267 267 266 265 265 264 264 264 263 263 262 261 261 261
289 287 285 283 283 282 282 282 282 282 282 281 281 281 280 279 279 280 280 278 277 277 276 275 274 274 273 271 270 269 268 267 267 266 265 265 265 265 264 264 263 262 262 261
288 287 284 287 285 284 284 283 283 283 283 283 283 283 282 281 281 281 280 279 277 278 277 277 276 276 276 274 271 270 269 269 268 267 266 265 265 265 265 264 264 263 263 262
287 287 286 286 287 287 285 284 284 284 285 285 284 284 284 284 283 282 281 280 280 279 278 278 278 277 277 275 273 271 270 270 269 267 267 266 266 266 266 265 265 264 264 263
287 287 286 287 287 287 286 285 285 285 285 285 285 285 285 285 284 283 281 280 280 280 279 279 278 277 277 276 274 272 271 271 270 268 267 267 268 268 268 267 267 266 264 264
288 286 287 287 287 287 286 286 285 285 285 285 285 285 286 285 284 284 283 281 280 280 280 279 278 277 276 275 274 273 272 271 270 269 268 268 269 269 269 269 268 267 266 265
288 288 288 288 287 285 284 284 284 284 284 285 285 285 286 287 286 286 284 283 282 281 279 279 278 277 276 275 274 274 273 272 271 270 270 270 270 269 269 268 268 267 267 267
288 288 288 287 286 285 284 284 284 284 284 284 285 285 285 287 287 287 286 285 284 283 281 279 277 277 275 274 274 274 274 273 272 271 270 270 270 270 270 269 268 267 267 267
288 287 286 286 286 285 284 283 283 284 284 284 285 285 286 286 287 287 287 287 286 284 282 279 277 276 275 275 274 274 274 273 272 272 272 271 271 271 271 270 269 268 268 268
287 286 285 286 286 285 285 284 283 283 284 285 286 287 287 286 287 287 287 287 287 285 283 280 278 277 275 274 274 274 274 273 272 272 272 272 272 272 271 270 270 269 269 269
289 288 287 287 287 286 285 286 285 285 285 286 286 287 287 288 288 288 287 287 287 286 284 282 280 278 276 274 274 273 273 272 272 273 273 273 273 273 272 271 271 271 271 270
289 287 286 286 286 286 287 287 287 287 287 287 288 288 289 288 288 287 287 287 287 285 284 283 282 280 277 276 275 274 273 272 272 272 273 273 274 273 273 272 272 272 272 271
289 288 286 286 286 287 288 288 288 289 289 289 289 289 289 288 288 288 287 287 287 286 285 284 283 281 279 277 276 274 273 272 272 272 273 274 274 274 273 273 273 273 273 273
291 289 288 288 288 288 288 288 289 289 290 290 291 291 290 289 289 289 288 287 288 287 286 285 283 282 281 279 277 275 273 272 272 271 272 273 274 274 275 275 275 274 274 274
293 291 290 289 289 290 289 289 289 290 290 290 290 291 291 291 291 291 290 289 289 289 287 285 284 282 282 280 278 276 274 273 272 271 271 272 274 275 277 277 277 277 276 275
293 292 292 291 291 291 290 290 290 290 291 291 291 291 292 292 292 292 292 291 291 290 288 286 285 283 281 279 278 276 275 274 273 272 272 272 274 275 277 279 279 278 277 276
295 294 293 293 292 292 292 291 291 291 291 292 293 292 293 293 292 292 292 292 292 290 290 288 286 283 281 279 278 277 276 275 274 274 274 274 275 276 277 278 279 278 277 276
298 296 294 293 293 293 294 294 293 292 292 292 292 292 293 293 292 292 291 292 292 291 291 290 287 285 282 279 279 278 277 277 276 276 275 276 276 277 278 279 278 277 275 275
300 298 296 295 294 295 296 295 295 294 294 294 294 294 293 293 293 292 291 291 291 290 291 290 288 287 284 282 281 280 279 278 278 277 277 277 277 277 278 278 278 276 275 274
302 300 298 297 297 297 297 297 297 296 296 296 296 296 295 294 293 292 291 291 291 290 290 290 289 287 286 285 284 282 280 280 279 278 278 277 277 277 278 278 277 275 275 274
303 301 300 300 299 299 298 298 298 298 298 298 298 298 297 296 295 294 293 292 292 292 291 291 290 288 287 286 285 284 283 282 281 279 278 278 278 278 278 278 277 276 275 274
303 302 302 302 302 301 301 300 300 300 300 300 300 300 299 298 297 296 295 294 293 293 292 291 290 289 288 288 286 285 284 283 282 281 280 279 279 278 278 277 277 276 275 275
305 305 305 305 304 303 303 302 302 302 303 303 303 303 302 301 299 299 298 296 294 293 293 291 290 290 290 289 288 286 285 284 283 281 280 279 280 280 279 278 277 276 275 274
308 308 307 306 306 305 305 305 305 305 305 304 305 304 304 303 302 301 300 298 296 294 293 292 291 291 290 290 288 287 286 285 283 282 281 280 281 281 280 279 278 277 275 274
310 310 309 308 307 307 307 307 307 307 307 306 306 307 306 305 304 304 303 301 299 297 296 295 294 293 291 290 288 286 285 285 284 283 282 282 282 282 281 280 278 276 275 274
312 312 311 310 309 308 308 308 308 309 309 308 308 308 308 307 306 306 305 304 302 300 299 298 297 295 294 291 289 287 286 284 284 284 284 283 283 284 284 283 280 278 276 276